Temperature
9 10 10 10 11 11 11 12 11 11 12 13 13 13 13 15 16 16 16 16 17 17 16 16 15 15 14 13 12 11 11 11 10 10 10 9 9 9 9 8 8 8 8 8
8 9 10 10 11 12 12 12 11 11 12 13 14 14 14 14 15 15 16 17 17 17 16 16 15 15 14 13 12 12 11 11 10 10 9 9 9 8 8 8 8 8 8 7
8 9 9 9 11 12 12 12 12 12 13 13 13 13 13 15 15 16 17 17 17 17 17 16 16 15 14 14 12 12 11 11 10 10 9 9 9 8 8 8 7 7 7 7
7 8 8 10 11 12 12 12 13 13 13 13 13 15 17 17 17 17 17 17 17 17 17 16 16 15 14 13 12 12 11 10 10 9 9 9 8 8 8 7 7 7 7 6
6 7 8 9 10 11 12 12 12 13 13 12 14 14 14 17 17 18 18 18 17 17 17 16 16 15 14 13 12 11 11 10 10 9 9 8 8 8 7 7 7 6 6 6
6 7 8 10 11 11 12 11 12 12 12 12 11 12 13 16 17 17 17 17 17 17 16 16 15 14 14 13 12 12 11 11 10 9 9 8 8 7 7 7 6 6 5 5
6 7 8 10 11 11 11 12 12 13 13 12 12 14 15 16 16 17 17 17 16 16 16 15 15 14 13 13 12 12 11 10 9 9 8 8 7 7 6 6 5 5 5 4
6 7 8 10 9 11 12 13 14 14 14 13 14 14 15 16 16 16 16 16 16 15 15 15 14 14 13 13 12 11 10 9 9 8 7 7 6 6 5 5 5 4 4 3
7 8 9 10 10 13 14 14 14 15 15 14 14 14 14 15 15 16 16 15 15 15 14 14 13 13 13 12 11 10 9 9 8 8 7 6 6 5 5 4 4 4 3 3
6 7 9 10 11 12 13 14 15 15 15 15 14 14 14 14 15 15 15 15 14 14 14 13 13 12 12 11 10 10 9 8 8 7 6 6 5 5 4 4 3 3 3 2
6 7 8 10 11 12 13 14 14 15 15 15 15 14 14 14 14 14 14 14 14 13 13 13 12 11 11 10 10 9 8 8 7 6 6 5 5 4 4 3 3 2 2 1
7 8 8 9 12 12 12 13 14 14 14 14 14 14 14 14 14 14 14 13 13 13 12 12 11 11 10 9 9 8 8 7 6 6 5 5 4 3 3 2 2 1 1 1
8 9 10 11 12 12 12 13 14 14 14 14 14 14 14 13 13 13 13 13 13 12 12 11 10 10 9 9 8 8 7 7 6 5 5 4 3 3 2 2 1 1 0 -0
9 9 9 10 11 12 12 13 13 13 14 14 13 13 13 13 12 12 12 12 12 11 11 10 10 9 8 8 7 7 6 6 5 5 4 3 3 2 2 1 1 0 -0 -1
9 10 10 11 11 11 12 12 12 12 12 12 12 12 12 12 12 12 12 11 11 10 10 9 9 8 8 7 7 6 6 5 4 4 3 3 2 2 1 1 0 -0 -1 -1
9 9 10 11 11 11 11 12 12 12 12 12 12 12 11 12 12 11 11 10 10 9 9 8 8 7 7 6 6 5 5 4 4 3 3 2 1 1 0 -0 -1 -1 -2 -2
8 7 8 9 10 10 11 12 12 12 12 12 11 11 11 10 10 10 9 9 9 9 8 7 7 6 6 5 5 4 4 3 3 2 2 1 1 0 -0 -1 -1 -2 -2 -3
8 9 9 10 10 10 11 11 11 12 12 11 11 10 10 10 10 9 9 8 7 7 6 6 6 5 5 4 4 4 3 3 2 2 1 1 -0 -1 -1 -2 -2 -2 -3 -3
8 8 9 10 10 11 11 11 11 11 11 10 10 10 10 9 9 8 8 7 6 6 5 5 5 4 4 4 3 3 2 2 1 1 0 -0 -1 -1 -2 -2 -3 -3 -4 -4
8 8 9 9 10 10 10 10 10 10 10 9 9 9 8 8 7 7 6 6 6 5 5 4 4 3 3 3 2 2 1 1 0 -0 -1 -1 -2 -2 -3 -3 -4 -4 -4 -5
7 8 8 9 9 9 9 9 9 9 9 8 8 8 7 7 6 6 5 4 4 4 3 3 3 3 2 2 1 1 0 -0 -0 -1 -1 -2 -2 -3 -3 -4 -4 -5 -5 -5
6 7 8 8 8 8 8 8 8 8 7 7 7 6 6 5 5 4 4 4 3 3 2 2 2 1 1 1 0 -0 -0 -1 -1 -2 -2 -3 -3 -4 -4 -4 -5 -5 -5 -6
5 6 7 7 7 7 6 6 6 6 6 6 6 5 5 4 4 4 3 2 2 2 1 1 1 0 0 -0 -1 -1 -2 -2 -2 -3 -3 -4 -4 -4 -5 -5 -5 -6 -6 -6
4 5 5 5 6 5 5 4 4 4 4 4 3 3 3 3 2 2 2 1 1 0 0 -0 -1 -1 -1 -1 -2 -2 -3 -3 -3 -4 -4 -4 -5 -5 -5 -6 -6 -6 -7 -7
3 3 4 4 4 3 3 3 2 2 2 1 1 1 1 2 2 1 0 -0 -0 -1 -1 -1 -2 -2 -2 -2 -3 -3 -3 -4 -4 -4 -5 -5 -5 -6 -6 -6 -7 -7 -7 -7
1 1 1 1 2 2 2 1 1 0 0 -0 -1 -1 -0 -0 -0 -1 -1 -1 -2 -2 -2 -2 -2 -3 -3 -3 -3 -4 -4 -4 -5 -5 -5 -6 -6 -6 -6 -7 -7 -7 -7 -8
-1 -1 -1 -1 -1 -1 -0 -0 -1 -1 -1 -1 -1 -2 -2 -2 -2 -2 -2 -2 -2 -3 -3 -3 -3 -3 -4 -4 -4 -5 -5 -5 -5 -6 -6 -6 -6 -7 -7 -7 -7 -8 -8 -8
Wind_Speed
9 8 12 12 17 18 18 17 15 15 15 13 11 11 11 10 9 9 9 9 11 10 9 9 9 9 10 10 10 10 11 11 11 10 10 10 11 11 11 11 11 11 10 9
10 10 11 13 18 22 23 20 17 13 15 11 10 8 8 9 10 11 11 12 12 11 10 11 11 11 10 10 10 10 11 11 9 10 10 10 11 10 10 10 9 9 10 9
10 9 6 15 23 25 21 20 21 22 22 8 10 12 14 13 12 13 13 13 13 13 13 13 13 12 12 11 10 10 10 10 10 10 10 10 10 10 10 10 9 9 8 8
6 7 13 13 12 15 19 19 20 20 15 13 14 13 12 12 14 14 13 12 12 12 11 11 10 10 9 10 11 11 10 10 10 10 10 10 10 10 9 8 8 8 8 8
6 9 9 8 9 16 17 19 19 21 17 12 10 7 9 11 13 14 14 12 12 12 10 10 10 11 11 10 10 10 11 11 11 11 11 10 10 9 7 7 7 6 7 7
6 8 12 11 9 10 10 15 15 18 18 12 11 12 15 11 11 11 10 9 9 8 8 9 9 11 12 11 11 12 11 10 10 11 11 11 10 8 6 6 6 6 6 6
10 8 10 8 7 12 13 14 11 16 17 15 17 18 11 10 10 10 10 9 9 9 9 9 10 12 12 11 12 10 9 9 9 9 10 9 8 6 7 6 6 5 5 4
10 9 11 5 9 14 10 5 6 11 15 16 17 13 9 11 12 11 10 9 9 9 8 7 10 12 12 10 9 9 10 10 9 9 8 8 8 7 7 7 6 5 4 3
10 10 5 5 8 8 5 5 6 7 9 12 12 11 10 10 11 11 11 10 9 10 9 7 9 11 12 9 10 11 11 10 9 9 7 8 8 8 6 6 5 4 4 4
5 9 10 9 7 5 5 6 6 6 7 9 10 11 11 11 11 11 10 10 10 12 11 8 8 8 9 10 11 12 11 10 9 9 7 6 6 6 6 6 5 5 4 4
9 9 7 9 8 6 5 3 2 3 5 8 10 10 10 11 12 11 9 8 10 12 12 10 9 9 9 11 12 12 10 9 8 7 8 6 5 5 6 5 6 6 5 5
11 9 7 10 10 7 5 6 5 4 4 5 9 11 10 11 10 11 11 10 10 10 11 10 10 10 9 10 12 13 10 8 7 6 6 6 5 3 3 3 4 4 4 4
11 11 10 11 10 9 9 8 6 6 7 7 7 10 12 9 9 11 11 12 12 12 12 11 11 10 9 9 11 11 10 9 7 7 6 6 5 5 3 2 2 1 1 2
10 8 9 10 10 9 7 6 4 3 4 7 8 9 10 9 10 12 12 11 11 12 11 11 11 9 8 9 10 10 9 9 8 6 6 6 5 4 4 3 1 1 2 3
11 9 10 9 7 6 5 6 6 6 6 6 7 10 12 12 12 11 10 12 12 12 11 11 11 9 8 10 10 10 9 7 6 6 5 5 4 4 3 3 2 2 2 3
7 6 6 7 8 7 7 8 8 8 8 8 8 9 9 10 10 11 12 13 14 13 12 11 10 9 9 10 10 8 7 10 8 6 5 5 4 4 3 3 2 2 3 3
6 7 6 6 8 8 8 8 10 10 9 10 10 11 12 13 12 11 10 9 9 10 10 11 10 9 9 10 10 7 7 7 9 6 5 5 4 4 3 3 3 3 4 4
11 11 11 10 10 9 8 7 8 9 9 9 12 13 13 14 14 12 11 12 11 9 7 8 9 10 9 9 8 7 7 6 5 5 4 4 3 3 3 3 3 4 4 4
9 9 8 9 9 10 9 9 9 9 10 12 13 12 11 11 12 13 13 13 13 10 6 8 14 11 9 9 9 7 7 6 5 4 3 4 3 2 3 3 3 4 4 4
7 6 6 6 6 7 9 9 10 10 10 12 13 13 12 11 12 13 12 9 6 6 9 10 10 9 8 9 9 6 6 6 5 4 3 3 3 3 3 3 3 4 4 4
6 5 6 7 7 7 9 11 12 12 11 12 14 14 13 12 12 12 12 9 5 8 10 13 9 7 7 8 9 6 5 5 4 4 3 3 2 2 3 3 4 4 4 5
5 6 8 9 10 9 7 9 11 13 13 12 13 14 15 14 12 10 8 7 9 12 9 7 7 8 9 9 6 5 5 4 4 3 3 3 3 3 3 4 4 5 5 5
5 7 9 10 11 11 11 10 11 12 13 13 14 14 14 12 10 10 9 6 8 12 9 7 9 12 11 7 5 5 4 4 3 2 2 2 3 3 4 4 5 5 5 6
7 9 10 11 13 14 13 11 12 12 13 12 11 12 12 12 9 7 8 13 14 13 8 10 13 11 10 5 5 4 3 3 2 2 2 2 3 3 4 5 5 5 6 7
10 11 12 13 13 12 13 14 15 15 14 12 13 11 9 7 8 10 9 10 14 13 8 10 11 10 6 4 4 3 2 2 2 2 2 2 3 4 4 5 5 6 6 7
10 10 10 10 10 10 11 11 11 11 12 12 11 9 9 9 11 10 9 10 11 11 8 5 5 6 4 3 3 2 1 1 1 1 2 3 4 5 5 6 7 7 7 8
11 11 11 11 10 9 9 10 11 11 10 12 12 10 10 9 9 9 9 8 7 6 5 4 4 3 3 2 1 1 1 1 2 3 3 4 4 5 6 7 7 7 7 8
Wind_Direction
244 236 204 218 211 205 209 209 211 220 220 221 215 210 209 203 195 189 194 196 197 197 196 191 189 189 187 185 181 177 176 181 185 177 170 167 168 169 169 170 174 175 176 179
248 238 218 224 219 214 217 215 219 226 234 222 220 207 213 207 196 197 203 204 202 198 194 193 192 189 185 184 180 174 178 182 173 166 166 167 168 166 165 168 169 170 178 181
231 228 231 230 215 211 216 218 214 224 230 197 200 208 210 208 205 204 206 204 200 199 198 197 195 187 185 180 170 171 175 173 169 167 168 168 164 164 169 172 169 174 181 184
212 204 222 234 208 205 216 224 217 223 222 199 208 213 215 206 203 209 206 201 201 199 198 196 186 179 170 162 165 169 171 170 169 166 166 163 164 170 171 169 173 179 184 188
196 212 246 266 212 192 202 229 220 222 226 208 199 206 238 221 205 207 205 199 198 197 192 181 175 168 158 161 164 168 174 174 172 168 165 165 170 172 168 167 174 180 183 184
197 207 226 229 210 181 180 237 222 216 223 205 172 213 235 215 200 204 199 189 185 178 166 165 168 158 158 165 169 179 179 172 166 165 167 171 173 168 162 167 174 173 179 185
205 218 246 238 187 148 186 229 216 207 214 199 201 220 219 184 189 190 186 180 167 158 164 170 160 155 162 167 181 177 158 152 156 161 164 163 159 156 154 154 154 164 173 185
199 213 237 218 157 182 212 209 197 202 207 206 213 215 190 181 181 174 169 164 156 153 157 154 153 154 160 172 167 144 142 146 150 151 151 148 147 148 149 150 154 164 173 193
206 222 251 209 211 225 200 201 206 203 207 197 202 201 187 181 173 170 166 160 153 149 146 143 151 155 160 161 143 138 138 143 143 141 140 144 149 150 149 152 159 172 180 200
231 244 256 262 262 258 235 217 213 203 191 183 187 187 179 171 166 161 157 154 149 145 145 149 150 148 150 143 140 137 140 140 140 139 137 137 142 150 155 163 167 175 188 205
242 257 255 256 253 252 271 246 189 182 182 180 171 172 171 165 163 160 153 150 150 152 152 151 143 138 138 140 137 135 136 137 137 138 141 140 141 156 163 177 178 181 194 197
232 228 225 244 252 251 244 233 200 173 163 169 168 164 160 160 158 154 150 147 145 144 144 143 139 137 138 140 139 138 139 141 142 140 138 138 134 110 110 143 175 185 191 199
240 241 244 250 249 246 235 227 210 187 171 165 162 156 151 150 151 147 148 151 152 150 146 142 138 139 141 140 139 142 145 146 142 142 143 144 146 147 140 75 91 126 196 237
240 239 249 245 241 236 223 206 179 155 150 148 145 141 140 140 145 150 155 153 143 138 138 139 138 141 141 136 134 135 137 141 143 145 147 149 153 154 156 162 184 278 285 279
240 234 235 234 222 216 188 155 146 147 137 131 137 144 147 150 156 153 143 135 132 133 137 138 139 142 136 134 134 135 136 139 138 139 140 143 145 147 155 169 190 230 285 295
248 253 227 210 198 186 171 163 162 166 157 151 149 149 147 143 138 135 137 142 144 148 149 145 144 143 136 133 131 131 135 141 140 139 138 140 146 155 167 180 199 224 244 258
224 233 227 209 193 189 189 184 175 169 161 156 154 143 133 129 128 132 135 133 133 136 139 141 140 135 134 135 134 135 133 140 137 135 144 153 160 171 179 189 211 233 248 263
227 226 222 208 197 187 181 170 162 158 156 155 145 141 143 146 148 146 137 125 116 109 115 127 131 129 128 131 131 132 134 136 140 146 150 158 167 174 183 201 221 241 260 273
232 227 220 203 190 178 171 164 159 153 145 144 144 146 146 142 140 137 133 132 135 135 137 134 134 128 128 134 130 128 133 136 137 142 151 167 165 176 196 215 234 248 257 264
220 210 195 176 160 158 157 151 143 141 143 141 136 133 131 133 133 132 128 125 130 135 136 133 126 125 126 133 128 129 136 143 148 153 158 169 182 200 217 233 243 252 258 261
193 172 157 147 138 137 144 144 143 142 140 140 140 140 136 130 128 129 128 122 112 122 128 128 124 126 128 133 129 132 138 145 152 161 170 180 194 214 232 245 253 262 265 267
162 148 143 136 128 122 121 126 131 131 130 127 124 125 126 125 120 109 100 122 133 129 123 120 122 132 138 130 125 132 138 145 152 161 175 189 205 227 244 253 259 266 268 267
134 132 131 128 125 118 105 108 117 123 126 127 130 132 130 128 129 129 122 122 126 125 120 123 133 134 128 120 123 128 135 144 156 173 190 205 220 233 247 258 262 266 267 268
116 117 116 114 112 110 107 104 102 103 103 103 106 113 118 117 100 86 111 125 125 119 116 126 127 126 118 114 119 125 135 148 168 192 212 226 236 243 251 258 264 267 269 271
105 107 109 113 112 112 112 109 103 100 99 98 93 90 90 100 113 116 115 119 122 115 111 118 118 115 109 113 119 128 143 174 199 213 219 236 249 257 261 264 266 270 272 273
95 99 99 98 106 114 117 115 113 114 114 110 102 96 96 99 105 109 109 108 109 108 105 102 106 105 105 112 121 138 166 218 275 262 246 256 261 265 269 270 269 270 270 270
88 91 93 90 89 96 105 110 113 116 117 118 114 107 105 105 105 105 105 105 104 102 102 101 101 105 111 118 132 173 223 241 250 255 260 262 265 267 269 269 270 270 270 270
Height
1383 1380 1381 1383 1385 1388 1390 1390 1398 1394 1393 1387 1386 1386 1386 1388 1391 1394 1396 1399 1401 1403 1406 1408 1411 1413 1416 1419 1423 1426 1430 1433 1438 1442 1447 1451 1456 1460 1464 1467 1471 1474 1477 1479
1381 1377 1376 1376 1375 1377 1379 1381 1385 1386 1384 1378 1379 1382 1384 1386 1388 1390 1392 1394 1397 1400 1402 1404 1407 1409 1412 1415 1419 1422 1426 1429 1434 1438 1443 1447 1451 1455 1459 1463 1466 1469 1472 1474
1379 1374 1375 1373 1362 1365 1367 1367 1372 1375 1369 1373 1376 1378 1379 1381 1384 1385 1387 1390 1393 1395 1398 1400 1403 1406 1408 1412 1415 1419 1422 1426 1430 1435 1439 1443 1447 1451 1454 1458 1461 1464 1467 1469
1377 1377 1376 1355 1347 1352 1356 1356 1359 1360 1360 1365 1368 1370 1372 1375 1378 1380 1383 1386 1388 1391 1394 1397 1400 1403 1406 1409 1412 1415 1419 1423 1427 1431 1435 1439 1443 1446 1450 1453 1456 1459 1462 1464
1372 1369 1361 1351 1344 1344 1350 1350 1348 1351 1353 1358 1362 1367 1367 1369 1372 1375 1378 1381 1384 1387 1390 1393 1396 1399 1402 1405 1409 1412 1415 1419 1423 1427 1431 1435 1438 1442 1445 1449 1451 1454 1457 1459
1366 1363 1354 1337 1334 1333 1344 1347 1338 1342 1346 1352 1359 1365 1358 1361 1366 1369 1373 1376 1380 1383 1386 1389 1392 1395 1398 1401 1405 1408 1412 1415 1420 1424 1427 1431 1434 1438 1441 1444 1447 1450 1452 1454
1359 1355 1343 1330 1327 1332 1345 1334 1327 1332 1336 1342 1346 1345 1348 1355 1359 1363 1367 1371 1375 1378 1381 1385 1388 1391 1394 1398 1401 1405 1409 1413 1417 1420 1424 1428 1431 1434 1437 1440 1443 1445 1447 1449
1349 1349 1339 1322 1324 1325 1322 1320 1321 1323 1326 1331 1333 1337 1343 1348 1352 1357 1361 1366 1370 1374 1377 1381 1384 1388 1391 1394 1398 1402 1406 1410 1414 1417 1421 1424 1427 1430 1433 1435 1438 1440 1442 1443
1333 1327 1319 1316 1315 1314 1316 1317 1318 1319 1321 1324 1327 1331 1336 1341 1346 1351 1356 1360 1365 1369 1373 1377 1381 1385 1388 1392 1396 1399 1403 1407 1411 1414 1418 1421 1424 1426 1429 1431 1433 1434 1436 1438
1327 1320 1315 1313 1312 1312 1313 1313 1314 1315 1317 1320 1322 1325 1330 1335 1340 1346 1351 1356 1360 1365 1369 1374 1378 1382 1386 1390 1393 1397 1401 1405 1408 1411 1415 1418 1420 1423 1425 1426 1428 1430 1431 1432
1322 1315 1312 1308 1308 1309 1311 1311 1311 1313 1314 1316 1318 1321 1325 1330 1335 1341 1347 1352 1357 1362 1366 1371 1375 1380 1384 1388 1391 1395 1399 1402 1406 1409 1412 1414 1417 1419 1421 1423 1425 1426 1427 1428
1311 1308 1310 1305 1305 1307 1309 1309 1309 1310 1312 1314 1316 1318 1322 1327 1332 1338 1344 1349 1355 1360 1364 1369 1374 1378 1382 1386 1390 1393 1397 1400 1403 1406 1409 1411 1414 1416 1418 1420 1421 1422 1423 1424
1303 1302 1303 1301 1302 1304 1305 1306 1307 1308 1309 1311 1315 1318 1321 1326 1331 1337 1342 1348 1353 1358 1363 1367 1372 1376 1381 1385 1388 1392 1394 1398 1401 1403 1406 1409 1411 1413 1414 1416 1418 1418 1419 1419
1298 1299 1298 1297 1298 1299 1301 1303 1305 1307 1309 1311 1313 1317 1321 1325 1330 1336 1341 1346 1352 1357 1361 1366 1370 1375 1379 1383 1386 1390 1393 1396 1399 1401 1404 1406 1408 1410 1411 1412 1413 1413 1414 1414
1290 1291 1291 1291 1293 1295 1297 1300 1302 1304 1307 1310 1313 1316 1320 1325 1329 1335 1340 1345 1350 1355 1360 1365 1369 1373 1377 1381 1385 1388 1391 1394 1396 1399 1401 1403 1405 1406 1407 1408 1408 1409 1409 1409
1284 1284 1285 1286 1288 1290 1293 1296 1299 1302 1305 1308 1312 1316 1320 1325 1329 1334 1339 1344 1348 1353 1358 1363 1368 1372 1376 1379 1383 1386 1389 1392 1394 1396 1398 1400 1401 1402 1403 1403 1403 1403 1403 1403
1281 1281 1282 1282 1284 1287 1290 1293 1296 1299 1303 1307 1311 1315 1319 1324 1329 1333 1338 1344 1349 1353 1358 1362 1366 1370 1374 1377 1381 1384 1386 1389 1391 1393 1395 1396 1397 1398 1398 1399 1399 1398 1398 1398
1275 1275 1277 1279 1280 1283 1286 1290 1294 1297 1301 1306 1310 1314 1318 1322 1326 1331 1337 1342 1347 1352 1357 1361 1365 1369 1372 1376 1379 1382 1384 1386 1388 1390 1391 1392 1393 1394 1394 1394 1394 1393 1393 1392
1269 1270 1272 1274 1277 1280 1283 1287 1292 1296 1300 1304 1308 1312 1316 1321 1326 1331 1336 1341 1345 1350 1355 1360 1364 1367 1371 1374 1377 1379 1381 1383 1385 1386 1388 1388 1389 1389 1389 1389 1389 1388 1387 1386
1263 1266 1268 1270 1274 1277 1281 1285 1290 1294 1298 1302 1306 1311 1315 1320 1325 1330 1335 1340 1345 1349 1354 1358 1362 1366 1369 1372 1374 1377 1379 1380 1382 1383 1383 1384 1384 1384 1384 1384 1383 1382 1381 1380
1259 1262 1264 1267 1271 1275 1279 1283 1287 1292 1296 1301 1305 1309 1314 1319 1325 1330 1334 1339 1345 1349 1353 1357 1361 1364 1367 1369 1372 1374 1375 1377 1378 1379 1379 1379 1380 1379 1379 1379 1378 1376 1375 1373
1255 1258 1262 1265 1269 1273 1278 1282 1286 1290 1294 1299 1304 1309 1313 1319 1324 1330 1335 1339 1343 1348 1352 1355 1359 1362 1364 1367 1369 1370 1372 1373 1374 1374 1375 1375 1375 1374 1374 1373 1372 1370 1369 1367
1253 1256 1260 1264 1268 1272 1276 1281 1285 1290 1294 1299 1303 1308 1313 1318 1323 1328 1333 1339 1343 1347 1351 1354 1357 1360 1362 1364 1366 1367 1368 1369 1370 1370 1370 1370 1370 1369 1368 1367 1365 1364 1362 1361
1252 1256 1260 1264 1268 1271 1276 1281 1286 1290 1295 1300 1305 1310 1314 1319 1324 1330 1334 1338 1342 1346 1350 1353 1356 1358 1360 1362 1363 1364 1365 1365 1366 1366 1366 1365 1364 1363 1362 1361 1359 1358 1356 1354
1253 1257 1261 1264 1268 1272 1277 1282 1287 1292 1297 1301 1307 1312 1317 1321 1325 1330 1334 1338 1342 1346 1349 1352 1354 1356 1358 1359 1360 1361 1362 1362 1362 1361 1361 1360 1359 1358 1356 1355 1353 1351 1349 1347
1256 1259 1263 1266 1270 1275 1279 1284 1288 1293 1298 1303 1308 1314 1319 1323 1327 1331 1335 1339 1342 1346 1348 1351 1353 1354 1356 1356 1357 1358 1358 1358 1357 1357 1356 1355 1353 1352 1350 1348 1346 1344 1342 1340
1260 1263 1266 1270 1275 1279 1283 1287 1291 1296 1300 1305 1309 1315 1320 1324 1328 1332 1336 1339 1342 1345 1348 1350 1351 1352 1353 1354 1354 1354 1354 1353 1353 1352 1350 1349 1347 1345 1343 1341 1339 1337 1335 1333